User: anonymous   Login
Location: Unspecified
(0.0000°N, 0.0000°E)
Time: 00:23:35
(UTC+01:00)
Language:

Cosmos 1315 Rocket - Orbit

View from above orbital plane
View from above orbital plane
View from above satellite
View from above satellite

Ground track
Ground track

The orbit data is extracted from the following two-line orbital elements,

1 12904U 81103B   18055.89428634  .00000544  00000-0  35976-4 0  9999
2 12904  81.1800 346.9206 0027726 315.2426  44.6560 15.05457743530849
Epoch (UTC): 24 February 2018 21:27:46
Eccentricity: 0.0027726
inclination: 81.1800°
perigee height: 531 km
apogee height: 569 km
right ascension of ascending node: 346.9206°
argument of perigee: 315.2426°
revolutions per day: 15.05457743
mean anomaly at epoch: 44.6560°
orbit number at epoch: 53084

The dashed part of the orbit path shows where the satellite is in the earth's shadow,  

DLR